{"data":{"norad_id":57081,"epoch":"2026-09-20T21:05:17.365344Z","epoch_age_seconds":88283,"freshness":"FRESH","line1":"1 57081U 23088AK  26263.87867321  .00000560  00000+0  29885-4 0  9999","line2":"2 57081  43.0020  73.6589 0001663 247.3074 112.7602 15.27578975180355","mean_motion":15.27578975,"eccentricity":0.0001663,"inclination_deg":43.002,"raan_deg":73.6589,"arg_perigee_deg":247.3074,"mean_anomaly_deg":112.7602,"bstar":2.9885e-5,"rev_number":18035,"period_min":94.266811966301,"perigee_km":481.91114950193,"apogee_km":484.19318101829,"semimajor_km":6861.1891652601,"source":"CELESTRAK","updated_at":"2026-09-21T09:00:33.554874Z"}}